Regional Weather Roundup
Issued by NWS Portland, ME

Current Version | Previous Version | Text Only | Print | Product List | Glossary Off
Versions: 1 2 3 4 5 6 7 8 9 10 11 12 13 14 15 16 17 18 19 20 21 22 23 24 25 26 27 28 29 30 31 32 33 34 35 36 37 38 39 40 41 42 43 44 45 46 47 48 49 50
000 ASUS41 KGYX 261505 RWRGYX WEATHER ROUNDUP FOR MAINE AND NEW HAMPSHIRE NATIONAL WEATHER SERVICE GRAY ME 1100 AM EDT WED APR 26 2017 MEZ002-005-006-010-012-015-018-020-021-024-026-027-029-261600- MAINE CITY SKY/WX TMP DP RH WIND PRES REMARKS PORTLAND LGT RAIN 50 48 93 E10 29.99F FOG SANFORD RAIN 48 47 96 NE10 29.97F FOG BAR HARBOR HVY RAIN 51 50 96 E5 30.08F FOG WISCASSET LGT RAIN 52 51 97 VRB3 30.03F FOG ROCKLAND FOG 47 47 100 E6 30.04S VSB 1/4 FRYEBURG RAIN 47 47 100 N7 30.01F FOG LEWISTONAUBURN LGT RAIN 47 46 97 N10 30.01F FOG AUGUSTA LGT RAIN 48 46 93 N7 30.04F FOG WATERVILLE LGT RAIN 49 48 97 NE6 30.03S BANGOR DRIZZLE 52 51 97 E5 30.07S FOG GREENVILLE N/A 46 46 100 VRB7 30.03S MILLINOCKET CLOUDY 46 46 100 NE3 30.10F FOG HOULTON LGT RAIN 46 46 100 S6 30.10S PRESQUE ISLE LGT RAIN 46 45 96 SE9 30.09F FRENCHVILLE LGT RAIN 44 41 89 SE9 30.06F VSB 1/4 CARIBOU LGT RAIN 48 45 89 S8 30.08F $$ NHZ002-005-008-009-011-012-014-261600- NEW HAMPSHIRE CITY SKY/WX TMP DP RH WIND PRES REMARKS PORTSMOUTH LGT RAIN 51 50 98 NE8 29.92F FOG ROCHESTER LGT RAIN 49 46 90 N9 29.94F FOG NASHUA LGT RAIN 50 50 100 N6 29.91F VSB 1 MANCHESTER LGT RAIN 51 48 89 N12 29.91S VSB 3/4 CONCORD LGT RAIN 50 49 96 NE9 29.94F FOG LACONIA LGT RAIN 47 46 97 NE10 29.97F FOG PLYMOUTH CLOUDY 51 49 93 CALM 29.96F FOG BERLIN CLOUDY 51 46 83 CALM 29.99F WHITEFIELD CLOUDY 54 46 74 NE12G20 29.94F JAFFREY LGT RAIN 49 49 100 VRB5 29.91S VSB 1 KEENE CLOUDY 55 50 83 VRB7 29.90F LEBANON CLOUDY 54 51 90 VRB5 29.92F MT WASHINGTON LGT RAIN 45 45 100 SE45G59 N/A VSB 0 $$ VTZ005-007-008-261600- VERMONT CITY SKY/WX TMP DP RH WIND PRES REMARKS ST JOHNSBURY N/A 53 51 93 MISG 29.92F MONTPELIER CLOUDY 50 50 100 CALM 29.96F BURLINGTON CLOUDY 59 52 77 CALM 29.89F $$ MAZ007-012-024-CTZ003-RIZ002-NYZ038-NYZ072-261600- SOUTHERN NEW ENGLAND AND NY CITY SKY/WX TMP DP RH WIND PRES REMARKS BOSTON LGT RAIN 52 52 100 E12 29.87F VSB 1/4 WORCESTER LGT RAIN 48 47 96 NE10G17 29.87S VSB 1/2 NANTUCKET FOG 55 54 96 SE26 29.83F VSB 1/4 PROVIDENCE LGT RAIN 58 58 100 CALM 29.83F FOG HARTFORD LGT RAIN 52 51 97 N13 29.85R ALBANY DRIZZLE 57 53 86 NE7 29.85F NEW YORK CITY CLOUDY 56 52 86 NE13 29.77R $$ ANZ081-ANZ082-ANZ150-NHZ014-MEZ023>029-261600- COASTAL MARINE OBSERVATIONS STATION/POSITION TIME TEMP WIND PRES WAVE AIR SEA DIR/SP/G HT/PER (UTC) (F) (DEG/KT/KT) (MB) (FT/S) MOUNT DESERT ROC 1500 45 1017.6F MATINICUS ROCK 1400 47 130/ 24/ 26 1015.6F ISLE OF SHOALS 1400 50 40/ 10/ 16 1013.4F JEFFREYS LEDGE 1406 44 N/A 6/ 7 CASHES LEDGE BUO 1350 47 43 1015.1 6/ 6 GEORGES BANK BUO 1350 53 42 1017.3 12/11 $$ .............KEY.............. WCI - WIND CHILL TC - TEMPERATURE IN CELSIUS VSB - VISIBILITY IN MILES HX - HEAT INDEX FAIR- INDICATES FEW OR NO CLOUDS BELOW 12,000 FT, WITH NO SIGNIFICANT WEATHER AND/OR OBSTRUCTIONS TO VISIBILITY.

USA.gov is the U.S. government's official web portal to all federal, state and local government web resources and services.